This is the latest recevied weather packets stored in our database for station/object WB5CFT. If no packets are shown the sender has not sent any weather packets the latest 10 day(s).
| Time | Temp. | Humidity | Pressure | Rain* | Wind** | Luminosity | Snow |
|---|---|---|---|---|---|---|---|
| 1777400327 | 30° C | 13% | 1015.8 hPa | 0 mm | - | 562 W/m² | - |
| 1777400021 | 30° C | 13% | 1015.9 hPa | 0 mm | - | 132 W/m² | - |
| 1777399719 | 29.44° C | 12% | 1016 hPa | 0 mm | - | 775 W/m² | - |
| 1777399415 | 28.89° C | 13% | 1016.2 hPa | 0 mm | - | 829 W/m² | - |
| 1777399113 | 28.89° C | 13% | 1016.6 hPa | 0 mm | - | 800 W/m² | - |
| 1777398810 | 28.89° C | 13% | 1016.6 hPa | 0 mm | - | 679 W/m² | - |
| 1777398507 | 28.89° C | 13% | 1016.3 hPa | 0 mm | - | 421 W/m² | - |
| 1777398203 | 28.89° C | 15% | 1016.6 hPa | 0 mm | - | 782 W/m² | - |
| 1777397900 | 29.44° C | 13% | 1016.7 hPa | 0 mm | - | 447 W/m² | - |
| 1777397596 | 28.89° C | 12% | 1016.6 hPa | 0 mm | - | 560 W/m² | - |
| 1777397292 | 28.89° C | 13% | 1016.6 hPa | 0 mm | - | 738 W/m² | - |
| 1777396989 | 28.33° C | 14% | 1016.8 hPa | 0 mm | - | 742 W/m² | - |
| 1777396686 | 28.33° C | 12% | 1016.7 hPa | 0 mm | - | 740 W/m² | - |
| 1777396382 | 28.33° C | 13% | 1016.8 hPa | 0 mm | - | 730 W/m² | - |
| 1777396079 | 28.33° C | 13% | 1016.7 hPa | 0 mm | - | 711 W/m² | - |
| 1777395775 | 27.78° C | 13% | 1017 hPa | 0 mm | - | 709 W/m² | - |
| 1777395470 | 27.78° C | 13% | 1016.7 hPa | 0 mm | - | 699 W/m² | - |
| 1777395168 | 27.78° C | 14% | 1016.9 hPa | 0 mm | - | 674 W/m² | - |
| 1777394865 | 27.78° C | 13% | 1016.7 hPa | 0 mm | - | 637 W/m² | - |
| 1777394560 | 27.22° C | 13% | 1016.8 hPa | 0 mm | - | 130 W/m² | - |
| 1777394258 | 27.22° C | 14% | 1017 hPa | 0 mm | - | 656 W/m² | - |
| 1777393953 | 27.22° C | 14% | 1016.8 hPa | 0 mm | - | 627 W/m² | - |
| 1777393653 | 27.22° C | 14% | 1016.9 hPa | 0 mm | - | 602 W/m² | - |
| 1777393348 | 27.22° C | 15% | 1017.1 hPa | 0 mm | - | 597 W/m² | - |
| 1777393045 | 27.22° C | 14% | 1016.9 hPa | 0 mm | - | 604 W/m² | - |
* Rain latest hour (hover to see other rain measurements)
** Current wind speed in m/s (hover to see current wind gust speed)